• în România
  • Lista ţărilor
  • Pe 7 zile
  • Temperatura apei
  • Hartă satelitară
  • Meteo pe hartă
  • Widget-uri
  • user-avatar
    Intrare

    Meteo pe oră la Arakaka

    Astăzi, 22 Octombrie, Luni

    Timp Temperatura Precipitaţii Vânt Presiune Umiditate
    00:00 +26°C° 1.9 mm 1 m/s 750 mmHg 98%
    01:00 +26°C° 1.9 mm 1 m/s 750 mmHg 98%
    02:00 +26°C° 1.9 mm 1 m/s 750 mmHg 98%
    03:00 +25°C° 1.6 mm 1 m/s 750 mmHg 98%
    04:00 +25°C° 1.6 mm 1 m/s 750 mmHg 98%
    05:00 +25°C° 1.6 mm 1 m/s 750 mmHg 98%
    06:00 +25°C° 0.4 mm 1 m/s 751 mmHg 97%
    07:00 +26°C° 0.4 mm 1 m/s 751 mmHg 96%
    08:00 +26°C° 0.4 mm 1 m/s 752 mmHg 96%
    09:00 +28°C° 0.1 mm 1 m/s 752 mmHg 87%
    10:00 +29°C° 0.1 mm 2 m/s 752 mmHg 79%
    11:00 +31°C° 0.1 mm 2 m/s 752 mmHg 71%
    12:00 +31°C° 0.7 mm 2 m/s 751 mmHg 75%
    13:00 +30°C° 0.7 mm 2 m/s 751 mmHg 80%
    14:00 +30°C° 0.7 mm 1 m/s 750 mmHg 84%
    15:00 +30°C° 0.4 mm 1 m/s 750 mmHg 86%
    16:00 +29°C° 0.4 mm 1 m/s 750 mmHg 89%
    17:00 +28°C° 0.4 mm 1 m/s 749 mmHg 91%
    18:00 +27°C° 0 mm 1 m/s 750 mmHg 93%
    19:00 +27°C° 0 mm 1 m/s 750 mmHg 95%
    20:00 +26°C° 0 mm 1 m/s 751 mmHg 97%
    21:00 +24°C° 0 mm 0 m/s 751 mmHg 97%
    22:00 +24°C° 0 mm 0 m/s 751 mmHg 97%
    23:00 +23°C° 0 mm 0 m/s 752 mmHg 98%

    Mâine, 23 Octombrie, Marţi

    Timp Temperatura Precipitaţii Vânt Presiune Umiditate
    00:00 +23°C° 0 mm 0 m/s 751 mmHg 98%
    01:00 +23°C° 0 mm 0 m/s 751 mmHg 97%
    02:00 +23°C° 0 mm 0 m/s 750 mmHg 97%
    03:00 +23°C° 0.1 mm 0 m/s 750 mmHg 97%
    04:00 +23°C° 0.1 mm 0 m/s 751 mmHg 97%
    05:00 +23°C° 0.1 mm 0 m/s 751 mmHg 96%
    06:00 +23°C° 0 mm 0 m/s 751 mmHg 95%
    07:00 +24°C° 0 mm 0 m/s 752 mmHg 93%
    08:00 +24°C° 0 mm 0 m/s 752 mmHg 91%
    09:00 +28°C° 0.1 mm 1 m/s 752 mmHg 82%
    10:00 +30°C° 0.1 mm 1 m/s 752 mmHg 73%
    11:00 +32°C° 0.1 mm 1 m/s 752 mmHg 64%
    12:00 +31°C° 1 mm 1 m/s 752 mmHg 73%
    13:00 +31°C° 1 mm 1 m/s 751 mmHg 81%
    14:00 +30°C° 1 mm 1 m/s 750 mmHg 89%
    15:00 +29°C° 1.2 mm 1 m/s 750 mmHg 91%
    16:00 +29°C° 1.2 mm 1 m/s 750 mmHg 93%
    17:00 +26°C° 1.2 mm 0 m/s 750 mmHg 95%
    18:00 +25°C° 0.1 mm 0 m/s 751 mmHg 96%
    19:00 +24°C° 0.1 mm 0 m/s 751 mmHg 97%
    20:00 +24°C° 0.1 mm 0 m/s 752 mmHg 97%
    21:00 +24°C° 0.1 mm 0 m/s 752 mmHg 98%
    22:00 +24°C° 0.1 mm 0 m/s 752 mmHg 98%
    23:00 +25°C° 0.1 mm 1 m/s 752 mmHg 99%

    Poimâine, 24 Octombrie, Miercuri

    Timp Temperatura Precipitaţii Vânt Presiune Umiditate
    00:00 +23°C° 0.3 mm 0 m/s 752 mmHg 99%
    01:00 +23°C° 0.3 mm 0 m/s 751 mmHg 99%
    02:00 +23°C° 0.3 mm 0 m/s 751 mmHg 99%
    03:00 +23°C° 0.1 mm 0 m/s 751 mmHg 99%
    04:00 +23°C° 0.1 mm 0 m/s 751 mmHg 99%
    05:00 +23°C° 0.1 mm 0 m/s 751 mmHg 99%
    06:00 +24°C° 0 mm 0 m/s 751 mmHg 97%
    07:00 +24°C° 0 mm 0 m/s 752 mmHg 96%
    08:00 +25°C° 0 mm 0 m/s 752 mmHg 95%
    09:00 +29°C° 0.2 mm 1 m/s 752 mmHg 85%
    10:00 +31°C° 0.2 mm 1 m/s 752 mmHg 76%
    11:00 +32°C° 0.2 mm 2 m/s 752 mmHg 67%
    12:00 +34°C° 0.5 mm 2 m/s 752 mmHg 66%
    13:00 +33°C° 0.5 mm 1 m/s 751 mmHg 65%
    14:00 +33°C° 0.5 mm 1 m/s 750 mmHg 65%
    15:00 +32°C° 0.3 mm 1 m/s 750 mmHg 68%
    16:00 +31°C° 0.3 mm 1 m/s 750 mmHg 72%
    17:00 +31°C° 0.3 mm 1 m/s 750 mmHg 76%
    18:00 +29°C° 0 mm 1 m/s 750 mmHg 81%
    19:00 +28°C° 0 mm 1 m/s 751 mmHg 86%
    20:00 +27°C° 0 mm 1 m/s 751 mmHg 90%
    21:00 +26°C° 0 mm 1 m/s 752 mmHg 93%
    22:00 +26°C° 0 mm 1 m/s 752 mmHg 95%
    23:00 +25°C° 0 mm 1 m/s 752 mmHg 97%

    25 Octombrie, Joi

    Timp Temperatura Precipitaţii Vânt Presiune Umiditate
    00:00 +25°C° 0 mm 1 m/s 752 mmHg 98%
    01:00 +23°C° 0 mm 0 m/s 751 mmHg 98%
    02:00 +23°C° 0 mm 0 m/s 751 mmHg 99%
    03:00 +23°C° 0 mm 0 m/s 751 mmHg 99%
    04:00 +23°C° 0 mm 0 m/s 751 mmHg 99%
    05:00 +23°C° 0 mm 0 m/s 751 mmHg 99%
    06:00 +26°C° 0 mm 1 m/s 751 mmHg 94%
    07:00 +27°C° 0 mm 1 m/s 752 mmHg 89%
    08:00 +28°C° 0 mm 1 m/s 752 mmHg 85%
    09:00 +30°C° 0.1 mm 1 m/s 752 mmHg 75%
    10:00 +32°C° 0.1 mm 1 m/s 752 mmHg 65%
    11:00 +35°C° 0.1 mm 2 m/s 752 mmHg 56%
    12:00 +34°C° 1.1 mm 2 m/s 751 mmHg 65%
    13:00 +32°C° 1.1 mm 1 m/s 751 mmHg 74%
    14:00 +31°C° 1.1 mm 1 m/s 750 mmHg 83%
    15:00 +31°C° 0.6 mm 1 m/s 750 mmHg 84%
    16:00 +30°C° 0.6 mm 1 m/s 750 mmHg 85%
    17:00 +27°C° 0.6 mm 0 m/s 750 mmHg 86%
    18:00 +28°C° 0 mm 1 m/s 750 mmHg 88%
    19:00 +28°C° 0 mm 1 m/s 751 mmHg 90%
    20:00 +27°C° 0 mm 1 m/s 751 mmHg 93%
    21:00 +26°C° 0 mm 1 m/s 751 mmHg 94%
    22:00 +26°C° 0 mm 1 m/s 752 mmHg 96%
    23:00 +25°C° 0 mm 1 m/s 752 mmHg 98%

    26 Octombrie, Vineri

    Timp Temperatura Precipitaţii Vânt Presiune Umiditate
    00:00 +25°C° 0 mm 1 m/s 751 mmHg 98%
    01:00 +23°C° 0 mm 0 m/s 751 mmHg 99%
    02:00 +23°C° 0 mm 0 m/s 750 mmHg 99%
    03:00 +23°C° 0 mm 0 m/s 751 mmHg 99%
    04:00 +23°C° 0 mm 0 m/s 751 mmHg 99%
    05:00 +23°C° 0 mm 0 m/s 751 mmHg 99%
    06:00 +24°C° 0 mm 0 m/s 752 mmHg 95%
    07:00 +27°C° 0 mm 1 m/s 752 mmHg 92%
    08:00 +28°C° 0 mm 1 m/s 753 mmHg 88%
    09:00 +30°C° 0.1 mm 1 m/s 753 mmHg 77%
    10:00 +32°C° 0.1 mm 1 m/s 753 mmHg 65%
    11:00 +35°C° 0.1 mm 2 m/s 752 mmHg 54%
    12:00 +35°C° 0.7 mm 2 m/s 752 mmHg 59%
    13:00 +34°C° 0.7 mm 2 m/s 751 mmHg 64%
    14:00 +34°C° 0.7 mm 2 m/s 750 mmHg 69%
    15:00 +32°C° 0.4 mm 2 m/s 750 mmHg 74%
    16:00 +31°C° 0.4 mm 2 m/s 750 mmHg 78%
    17:00 +29°C° 0.4 mm 2 m/s 750 mmHg 82%
    18:00 +28°C° 0.1 mm 1 m/s 751 mmHg 87%
    19:00 +27°C° 0.1 mm 1 m/s 752 mmHg 92%
    20:00 +26°C° 0.1 mm 1 m/s 752 mmHg 97%
    21:00 +26°C° 0 mm 1 m/s 752 mmHg 97%
    22:00 +26°C° 0 mm 1 m/s 752 mmHg 98%
    23:00 +23°C° 0 mm 0 m/s 752 mmHg 99%

    27 Octombrie, Sâmbătă

    Timp Temperatura Precipitaţii Vânt Presiune Umiditate
    00:00 +23°C° 0 mm 0 m/s 752 mmHg 99%
    01:00 +23°C° 0 mm 0 m/s 752 mmHg 99%
    02:00 +23°C° 0 mm 0 m/s 751 mmHg 99%
    03:00 +23°C° 0.1 mm 0 m/s 751 mmHg 99%
    04:00 +23°C° 0.1 mm 0 m/s 751 mmHg 99%
    05:00 +23°C° 0.1 mm 0 m/s 752 mmHg 99%
    06:00 +24°C° 0.2 mm 0 m/s 752 mmHg 95%
    07:00 +25°C° 0.2 mm 0 m/s 753 mmHg 92%
    08:00 +28°C° 0.2 mm 1 m/s 753 mmHg 88%
    09:00 +29°C° 0.4 mm 1 m/s 753 mmHg 82%
    10:00 +31°C° 0.4 mm 1 m/s 753 mmHg 77%
    11:00 +32°C° 0.4 mm 1 m/s 753 mmHg 71%
    12:00 +31°C° 1.9 mm 1 m/s 752 mmHg 78%
    13:00 +30°C° 1.9 mm 1 m/s 751 mmHg 84%
    14:00 +30°C° 1.9 mm 1 m/s 750 mmHg 91%
    15:00 +29°C° 1 mm 1 m/s 750 mmHg 92%
    16:00 +28°C° 1 mm 1 m/s 751 mmHg 94%
    17:00 +28°C° 1 mm 1 m/s 751 mmHg 95%
    18:00 +27°C° 0.1 mm 1 m/s 751 mmHg 96%
    19:00 +27°C° 0.1 mm 1 m/s 752 mmHg 97%
    20:00 +26°C° 0.1 mm 1 m/s 752 mmHg 98%
    21:00 +26°C° 0 mm 1 m/s 753 mmHg 99%
    22:00 +24°C° 0 mm 0 m/s 753 mmHg 99%
    23:00 +24°C° 0 mm 0 m/s 753 mmHg 99%

    28 Octombrie, Duminică

    Timp Temperatura Precipitaţii Vânt Presiune Umiditate
    00:00 +23°C° 0.3 mm 0 m/s 752 mmHg 99%
    01:00 +23°C° 0.3 mm 0 m/s 752 mmHg 99%
    02:00 +23°C° 0.3 mm 0 m/s 751 mmHg 99%
    03:00 +23°C° 0.2 mm 0 m/s 752 mmHg 99%
    04:00 +23°C° 0.2 mm 0 m/s 752 mmHg 99%
    05:00 +23°C° 0.2 mm 0 m/s 752 mmHg 99%
    06:00 +24°C° 0.2 mm 0 m/s 753 mmHg 97%
    07:00 +25°C° 0.2 mm 0 m/s 753 mmHg 95%
    08:00 +26°C° 0.2 mm 0 m/s 754 mmHg 92%
    09:00 +27°C° 0.5 mm 0 m/s 753 mmHg 87%
    10:00 +28°C° 0.5 mm 0 m/s 753 mmHg 81%
    11:00 +32°C° 0.5 mm 1 m/s 753 mmHg 76%
    12:00 +31°C° 1.2 mm 1 m/s 752 mmHg 78%
    13:00 +31°C° 1.2 mm 1 m/s 751 mmHg 80%
    14:00 +31°C° 1.2 mm 1 m/s 750 mmHg 82%
    15:00 +30°C° 0.3 mm 1 m/s 750 mmHg 83%
    16:00 +29°C° 0.3 mm 1 m/s 751 mmHg 85%
    17:00 +29°C° 0.3 mm 1 m/s 751 mmHg 87%
    18:00 +28°C° 0 mm 1 m/s 751 mmHg 90%
    19:00 +27°C° 0 mm 1 m/s 752 mmHg 94%
    20:00 +26°C° 0 mm 1 m/s 752 mmHg 98%
    21:00 +24°C° 0 mm 0 m/s 752 mmHg 98%
    22:00 +24°C° 0 mm 0 m/s 752 mmHg 98%
    23:00 +23°C° 0 mm 0 m/s 752 mmHg 99%
    Arată mai mult